Wind_Speed
43 39 39 36 36 39 39 38 37 33 29 27 22 27 27 23 18 17 17 12 10 13 12 8 9 6 8 9 14 11 18 18 9 20 27 30 28 31 33 38 41 42 37
43 39 37 36 37 35 35 37 33 34 33 28 26 29 25 21 18 20 17 11 13 11 10 10 8 6 9 12 8 16 17 16 16 19 24 28 29 28 36 43 43 39 38
40 39 36 36 36 35 34 34 33 33 21 25 25 26 25 22 19 18 15 11 11 10 11 8 5 7 10 9 14 14 13 16 24 23 22 27 27 31 36 43 43 37 35
39 40 39 38 37 36 36 34 32 27 27 24 25 24 22 19 16 12 13 12 9 8 7 6 4 7 9 11 10 10 15 21 21 22 21 21 24 28 31 39 42 36 39
38 36 39 37 35 34 31 29 26 26 24 26 24 20 15 11 14 14 13 14 12 6 4 3 6 6 9 11 9 13 19 20 20 21 17 19 21 26 31 34 31 37 34
37 37 31 32 31 30 25 22 24 21 21 20 20 18 15 10 14 9 13 11 8 6 3 5 6 8 11 13 10 14 18 17 20 14 17 17 19 20 30 33 28 29 11
34 31 31 30 28 23 22 21 20 19 19 19 18 15 13 15 13 11 18 11 11 8 5 4 5 8 12 13 13 18 19 14 14 19 22 23 24 24 29 38 35 32 28
25 27 31 30 27 24 22 20 16 17 15 15 17 17 18 15 12 11 10 11 8 6 6 5 6 5 8 12 17 18 16 16 19 21 20 19 21 26 28 30 33 29 28
25 28 30 29 27 25 22 22 20 18 19 18 20 19 18 18 14 11 9 6 4 2 5 3 3 6 11 13 14 15 17 19 22 22 18 14 23 27 24 36 38 30 22
24 26 28 28 28 28 25 23 22 19 19 19 16 17 16 18 12 9 7 8 6 10 7 8 8 12 11 13 12 14 16 21 22 23 19 21 28 24 24 29 31 26 20
27 29 29 28 28 24 22 20 19 20 18 18 18 17 15 14 16 12 11 9 6 6 7 7 10 10 11 11 12 13 14 17 19 17 23 25 29 31 28 22 34 29 27
31 29 25 22 20 20 21 18 20 23 23 20 21 17 14 13 12 11 10 6 4 5 6 5 6 6 7 9 9 8 16 15 19 21 25 25 26 27 26 16 30 35 33
27 27 24 21 21 20 21 22 22 23 23 24 22 19 17 15 11 9 8 6 6 7 3 3 3 6 6 8 8 14 17 19 21 22 26 26 24 30 27 22 21 31 36
28 25 25 24 22 22 24 24 21 20 22 22 19 18 19 19 12 10 10 10 6 4 2 3 5 6 10 10 7 13 16 18 20 22 25 27 28 24 27 27 21 23 27
27 25 23 22 20 18 16 12 14 14 14 15 18 19 19 17 13 11 12 8 6 4 8 12 11 11 12 12 12 13 16 19 21 22 23 26 28 28 25 28 25 25 24
23 19 18 17 16 16 17 17 14 9 7 6 9 13 18 14 15 14 10 8 6 6 10 14 13 14 13 12 12 13 16 16 18 20 23 24 26 28 28 27 25 25 23
21 19 18 16 16 16 16 18 17 12 10 8 8 10 14 12 17 17 12 13 10 12 15 13 13 12 11 11 10 11 14 15 16 19 21 20 22 25 27 25 26 24 24
22 19 18 18 17 17 17 17 16 17 16 14 11 15 19 21 18 16 16 14 10 12 14 13 11 10 10 8 7 7 10 15 17 20 21 24 19 16 21 24 25 24 19
18 16 15 14 15 14 17 17 17 18 19 22 22 21 20 19 18 14 10 12 19 16 14 12 10 8 7 7 10 9 10 13 14 18 21 21 23 21 18 26 23 26 23
12 10 13 14 12 14 18 22 20 20 22 23 22 22 21 19 15 12 16 18 17 16 11 11 9 8 8 8 12 11 12 13 12 17 21 19 22 20 20 19 25 25 25
14 12 15 22 19 17 18 23 30 27 25 24 22 22 21 18 15 15 17 16 14 12 13 12 10 8 9 7 7 12 12 12 10 14 18 17 21 21 20 18 19 24 27
14 16 14 14 18 20 23 26 24 23 22 24 21 22 21 13 12 23 19 16 13 12 11 10 10 9 7 7 7 5 5 6 7 11 15 17 19 18 16 19 18 22 22
14 17 16 15 17 20 19 24 27 24 25 26 23 23 20 11 19 23 20 15 13 13 12 13 13 12 7 8 9 8 8 6 7 9 12 13 15 17 16 16 18 19 21
8 21 20 21 21 22 24 22 21 26 24 27 27 26 17 18 22 22 20 18 16 13 9 8 8 5 4 7 9 9 10 10 9 9 11 13 13 13 15 13 17 18 21
1 22 22 24 24 22 22 19 21 25 29 29 28 24 23 22 23 23 21 17 15 12 11 8 7 7 8 8 8 8 8 10 11 11 12 11 11 12 15 13 15 17 20
15 18 18 17 19 22 23 22 23 28 25 26 27 27 29 25 22 25 21 20 18 17 14 10 6 7 7 8 8 7 7 7 9 11 10 9 11 13 14 14 15 16 19
Wind_Direction
206 207 212 214 217 226 229 230 233 237 239 244 224 212 219 219 219 206 213 226 233 204 230 248 262 253 303 308 321 320 324 323 304 314 320 325 322 320 321 320 317 313 306
203 204 209 212 215 217 223 229 229 235 236 239 232 215 218 228 218 214 219 233 238 216 229 243 245 286 302 319 307 325 325 318 328 317 320 322 318 317 322 323 320 313 305
196 200 204 208 211 214 219 225 233 231 234 232 227 220 223 230 214 217 225 252 236 212 209 232 228 307 311 324 327 334 325 328 330 321 312 314 321 321 322 326 321 313 309
196 196 200 203 207 212 218 223 228 230 232 233 229 225 230 227 218 226 229 233 222 219 224 230 290 309 323 333 346 325 329 334 335 327 312 317 319 325 326 327 323 326 318
196 197 200 201 203 207 214 220 224 228 229 230 226 221 219 218 219 227 220 220 216 222 204 296 310 325 319 340 343 337 341 341 336 332 318 321 319 329 340 328 316 316 323
194 199 196 191 194 203 204 211 217 221 222 218 212 209 209 218 214 221 231 197 198 179 264 316 292 314 320 336 327 332 339 340 331 334 325 317 314 326 346 335 328 328 329
193 190 186 180 184 188 195 203 207 211 204 193 193 202 198 192 213 223 192 172 182 191 233 260 285 296 304 312 329 337 339 342 335 327 329 322 311 328 347 352 341 330 321
174 165 172 173 174 182 192 195 189 182 176 181 190 192 192 199 191 171 171 206 207 200 245 278 279 281 319 337 339 340 348 345 338 338 328 320 326 335 343 350 340 326 330
147 152 161 163 163 170 166 157 165 175 181 193 197 189 180 168 170 179 176 168 186 251 252 240 5 27 354 347 360 358 354 352 351 355 354 346 345 351 353 0 354 346 343
145 152 156 159 158 153 158 173 182 188 189 171 181 184 184 166 170 161 172 167 123 103 96 76 44 10 10 14 9 356 342 351 354 6 11 5 6 10 9 14 5 353 347
146 145 148 154 155 161 162 164 170 170 162 175 165 181 179 188 180 174 170 180 172 99 87 70 33 35 31 14 2 351 349 351 358 3 6 4 1 12 11 17 25 12 358
144 142 142 142 142 160 163 163 165 158 159 170 167 174 179 181 176 162 182 167 148 104 106 55 48 30 29 11 24 31 4 11 17 17 12 3 3 0 17 22 27 33 26
130 132 136 137 145 151 150 154 164 163 167 174 175 167 155 153 154 173 166 147 128 110 106 35 18 17 15 38 57 18 20 24 18 17 12 4 12 14 25 21 18 32 38
129 138 144 147 151 159 168 173 172 173 181 184 177 157 165 155 173 176 165 148 123 90 36 49 49 44 74 45 49 33 28 23 19 20 19 16 19 17 22 32 20 18 33
133 140 145 150 152 150 152 162 176 176 188 192 192 176 174 174 184 164 151 148 129 87 74 94 85 69 57 49 51 35 26 27 26 25 26 25 25 23 18 29 35 33 27
129 138 140 144 150 143 132 104 98 118 165 179 207 205 193 212 175 166 160 153 129 127 106 90 75 66 58 52 44 40 22 20 25 32 37 32 30 31 28 25 26 36 34
143 149 151 150 152 149 146 140 123 110 123 144 160 184 206 177 154 154 151 140 123 115 102 93 83 71 63 56 44 39 33 33 22 16 18 18 23 32 30 30 27 31 36
157 155 151 158 165 164 160 151 147 139 124 115 136 136 143 147 151 146 141 137 123 119 106 95 88 81 66 57 37 27 41 32 26 24 25 26 24 12 30 34 32 30 30
134 137 145 151 163 165 169 162 153 145 141 138 137 141 144 148 147 140 125 117 121 121 112 97 92 73 67 51 24 29 66 46 31 27 28 28 27 29 39 34 37 39 34
138 149 161 168 168 173 168 161 156 157 151 153 152 151 152 150 142 126 123 115 109 101 100 99 96 89 73 48 34 64 68 50 37 33 29 28 27 35 46 41 37 36 39
162 166 171 194 185 181 172 168 166 165 160 160 164 165 158 149 146 139 124 119 119 112 94 111 97 78 68 55 47 62 66 58 43 31 29 32 30 36 45 50 39 40 39
172 178 167 170 177 174 164 163 162 159 158 158 166 171 167 157 151 137 130 121 108 100 108 108 92 86 71 42 31 27 32 62 51 43 33 37 32 39 53 49 43 36 40
190 177 182 201 191 167 166 162 169 166 163 165 166 166 178 182 150 142 135 128 122 121 117 116 108 102 72 33 39 42 49 83 55 48 36 38 32 31 48 52 50 45 46
342 194 188 182 176 169 167 167 171 168 162 161 165 164 166 153 143 139 137 136 133 138 139 129 116 107 58 46 45 52 63 77 68 51 46 44 36 42 49 69 55 57 57
56 127 134 143 146 159 165 166 162 159 159 157 163 162 155 147 144 146 144 140 141 139 129 114 91 76 73 61 53 62 78 70 58 54 57 55 53 61 50 72 69 64 73
104 114 119 119 126 152 158 156 165 168 156 158 165 168 159 157 152 148 148 147 140 134 133 131 99 67 68 62 58 65 85 79 69 66 62 63 62 64 63 76 76 76 72
Height
756 762 767 771 775 779 782 786 789 792 794 796 797 798 798 801 803 805 806 808 811 808 816 813 815 815 816 814 813 813 811 808 804 798 796 790 785 780 775 769 760 749 741
744 753 758 764 768 772 775 778 782 785 789 792 793 793 796 797 801 803 805 807 808 806 811 814 816 816 814 812 810 809 808 805 800 795 791 787 782 775 769 760 749 739 730
735 743 750 755 760 765 769 773 777 781 785 787 788 790 792 793 799 802 805 805 806 807 810 812 813 813 810 809 807 807 805 803 799 794 788 785 778 771 762 752 739 729 720
728 732 738 744 750 757 762 767 772 778 783 785 785 788 790 793 799 803 805 807 808 809 808 809 810 809 810 806 804 804 802 797 794 790 785 780 775 767 762 747 727 721 711
721 725 728 735 742 750 757 764 771 775 779 781 783 786 790 796 798 802 800 803 807 810 809 807 810 808 807 805 803 801 799 793 789 786 782 780 772 766 757 744 734 718 707
712 717 724 731 739 748 756 762 766 770 773 778 781 784 788 792 794 793 803 801 803 807 809 808 810 807 806 803 802 798 797 795 790 785 781 778 772 767 757 745 732 721 706
706 713 720 729 738 746 753 758 761 765 769 774 778 783 788 785 791 789 789 799 800 799 802 802 803 804 802 801 799 797 794 790 790 785 780 776 769 763 755 742 730 722 711
706 711 719 727 736 743 749 754 759 764 769 775 777 777 778 785 782 793 791 796 800 797 798 801 800 799 799 800 797 794 792 791 786 783 779 773 768 762 755 747 734 722 710
707 713 719 726 734 740 747 751 757 761 763 771 773 777 779 780 784 787 793 796 800 798 798 796 796 796 798 797 795 794 792 789 784 780 775 772 767 761 754 744 730 718 707
710 714 720 726 732 738 743 748 752 759 768 766 776 778 781 779 786 790 795 793 796 795 796 796 796 797 796 796 795 794 792 789 784 779 775 770 765 759 753 748 738 727 715
710 716 722 727 731 736 741 747 755 761 765 774 773 781 781 781 781 784 789 792 794 796 795 794 796 797 796 796 795 794 793 789 784 778 774 769 762 757 753 749 742 732 723
713 719 725 729 732 739 744 752 756 757 764 773 774 779 780 783 784 787 792 792 795 795 795 795 796 797 796 796 795 794 792 788 784 779 773 768 763 758 753 750 745 737 730
716 721 727 732 737 742 748 753 760 760 763 770 772 774 777 781 787 791 791 793 794 793 796 796 796 796 797 796 794 794 792 787 784 779 774 770 766 761 757 752 748 741 734
720 726 731 734 738 743 749 753 757 761 764 768 771 775 778 773 784 789 790 792 793 794 795 795 795 796 797 796 795 795 792 789 785 781 777 772 768 763 758 754 749 744 738
724 729 734 738 743 747 752 756 759 762 766 769 772 776 779 780 783 787 789 790 792 793 794 795 796 797 796 796 796 796 793 790 786 782 778 775 770 766 762 759 754 749 744
727 732 738 742 747 751 754 759 762 764 767 770 773 775 777 779 783 786 789 792 793 793 795 796 798 797 798 798 798 797 795 792 788 784 780 777 774 770 767 762 758 755 751
730 734 740 745 749 753 756 758 761 766 768 769 773 774 776 778 783 787 789 792 794 795 796 798 798 798 799 800 799 798 796 794 791 787 784 780 778 775 772 768 764 761 757
732 736 739 743 748 753 756 759 761 764 768 771 775 776 779 782 785 788 791 792 794 796 797 799 800 800 801 801 800 799 797 795 793 789 786 782 780 779 776 773 770 765 762
734 738 742 745 749 753 756 759 763 766 770 773 777 780 782 785 788 790 793 793 795 797 798 799 801 801 802 802 800 799 798 797 795 791 788 786 784 782 780 776 773 770 768
736 740 742 744 748 752 755 759 765 768 771 774 777 780 784 786 788 791 794 795 796 798 799 800 802 803 803 802 801 800 799 798 797 794 791 789 787 785 783 780 778 775 772
737 740 740 743 746 750 753 756 760 764 769 773 776 781 783 786 788 792 794 795 797 799 800 802 803 803 803 803 802 801 800 799 798 796 793 791 790 788 786 784 783 780 777
734 737 740 742 743 748 753 756 761 765 768 772 776 780 784 787 789 792 794 796 797 799 801 803 805 804 804 803 802 802 801 800 799 797 796 794 792 791 790 788 785 784 782
732 735 737 739 741 746 751 755 759 761 766 769 774 779 784 787 790 791 794 796 799 802 803 804 804 805 804 804 803 802 801 801 800 799 798 796 794 793 792 790 790 788 786
730 731 733 735 739 743 748 752 757 760 764 768 772 777 783 786 789 792 795 799 800 802 804 805 805 806 805 805 804 804 803 802 801 800 799 798 797 796 795 794 793 792 790
729 730 732 736 739 742 746 751 756 759 762 766 772 778 782 785 789 793 796 798 801 804 805 805 806 807 807 807 806 805 804 803 802 802 801 800 799 798 797 796 796 795 794
733 733 735 738 741 743 746 749 754 759 762 765 769 774 779 784 789 793 797 799 802 804 805 806 807 808 808 808 808 807 806 805 804 804 803 803 801 800 800 799 799 798 798